Flag for Germany Weather past 2 weeks in Porta Westfalica, North Rhine-Westphalia, Germany

Now
59 °F

Drizzle. Fog.


Feels Like: 59 °F
Forecast: 55 / 68 °F
Wind: 2 mph from Southwest

Location: Bueckeburg

Current Time: Aug 27, 2015 at 10:20:08 PM

Latest Report: Aug 27, 2015 at 9:20 PM


Visibility: 2 mi

Pressure: 29.86 "Hg

Humidity: 100%

Dew point: 59 °F

Location of Porta WestfalicaLocation

Historic Weather in Porta Westfalica — Graph

°F

Porta Westfalica temperature yesterday

Maximum temperature yesterday: 79 °F (at 3:20 PM)
Minimum temperature yesterday: 61 °F (at 1:20 AM)
Average temperature yesterday: 70 °F

Past Weeks' High & Low Weather Summary

 TemperatureHumidityPressure
High82 °F (Aug 13, 4:20 PM)100% (Aug 13, 4:20 AM)30.27 "Hg (Aug 13, 4:20 AM)
Low54 °F (Aug 19, 6:20 AM)32% (Aug 22, 12:20 PM)29.56 "Hg (Aug 24, 6:20 PM)
Average67 °F74%29.94 "Hg
* Reported Aug 12 9:20 PM — Aug 27 9:02 PM, Porta Westfalica, Weather by CustomWeather, © 2015

Note: Actual official high and low records may vary slightly from our data, if they occured in-between our weather recording intervals... More about our weather records

Advertising

Porta Westfalica weather history for previous 24 hours

 ConditionsComfort  
Time TempWeatherWind HumidityBarometerVisibility
9:02 PM
Thu, Aug 27
59 °FDrizzle. Partly sunny.5 mph100%29.86 "Hg4 mi
8:20 PM59 °FDrizzle. Broken clouds.7 mph94%29.86 "Hg4 mi
7:47 PM59 °FDrizzle. Fog.6 mph100%29.83 "Hg3 mi
7:20 PM59 °FDrizzle. Fog.9 mph100%29.83 "Hg3 mi
6:20 PM61 °FRain. Fog.2 mph94%29.83 "Hg3 mi
5:56 PM61 °FRain. Fog.6 mph94%29.83 "Hg3 mi
5:20 PM61 °FRain. Mostly cloudy.6 mph94%29.86 "Hg4 mi
4:20 PM64 °FRain. More clouds than sun.7 mph83%29.86 "HgN/A
3:20 PM68 °FLight rain. More clouds than sun.9 mph64%29.83 "HgN/A
2:20 PM68 °FOvercast.7 mph64%29.83 "HgN/A
1:20 PM70 °FOvercast.12 mph60%29.83 "HgN/A
12:20 PM70 °FPartly sunny.10 mph60%29.86 "HgN/A
11:20 AM70 °FMore clouds than sun.16 mph64%29.83 "HgN/A
10:20 AM70 °FLight rain. More clouds than sun.15 mph73%29.83 "HgN/A
9:20 AM70 °FMostly cloudy.12 mph69%29.80 "HgN/A
8:20 AM70 °FLight rain. Broken clouds.10 mph64%29.80 "HgN/A
7:20 AM70 °FPassing clouds.6 mph64%29.77 "HgN/A
6:20 AM70 °FPartly cloudy.7 mph60%29.77 "HgN/A
5:20 AM70 °FPassing clouds.7 mph57%29.74 "HgN/A
4:20 AM73 °FLight rain. Partly cloudy.12 mph50%29.74 "HgN/A
3:20 AM72 °FPassing clouds.14 mph53%29.74 "HgN/A
2:20 AM73 °FPassing clouds.15 mph50%29.74 "HgN/A
1:20 AM73 °FPassing clouds.16 mph50%29.77 "HgN/A
12:20 AM72 °FPassing clouds.12 mph57%29.80 "HgN/A
11:20 PM
Wed, Aug 26
73 °FPassing clouds.12 mph53%29.80 "HgN/A
10:20 PM73 °FPassing clouds.15 mph53%29.83 "HgN/A
Weather by CustomWeather, © 2015

See weather overviewHow to use our weather pages